Franklin, PA

8:16 PM EST on November 11, 2019 (GMT -0500)
Venango Regional

Weather History for KFKL - September, 2019

Change the Weather History Date:

Monday, September 30, 2019

  Actual Average Record
Temperature  
Mean Temperature 68 °F -  
Max Temperature 75 °F 67 °F 87 °F (1953)
Min Temperature 60 °F 44 °F 30 °F (1935)
Cooling Degree Days 2    
Growing Degree Days 18 (Base 50)    
Moisture  
Dew Point 63 °F    
Average Humidity 89    
Maximum Humidity 100    
Minimum Humidity 78    
Precipitation  
Precipitation 0.02 in - - ()
Sea Level Pressure  
Sea Level Pressure 30.17 in    
Wind  
Wind Speed 4 mph (SSE)    
Max Wind Speed 9 mph    
Max Gust Speed -    
Visibility 10 miles    
Events Rain    
Averages and records for this station are not official NWS values.
T = Trace of Precipitation, MM = Missing Value Source: NWS Daily Summary

Daily Weather History Graph

Daily Weather History Graph

Search for Another Location

Airport or City:

Astronomy

Sep. 30, 2019 Rise Set
Actual Time 7:14 AM EDT 7:03 PM EDT
Civil Twilight 6:47 AM EDT 7:30 PM EDT
Nautical Twilight 6:15 AM EDT 8:02 PM EDT
Astronomical Twilight 5:42 AM EDT 8:35 PM EDT
Moon 9:17 AM EDT (9/30) 8:36 PM EDT (9/30)
Length of Visible Light 12h 43m
Length of Day
11h 48m
Waxing Crescent, 5% of the Moon is Illuminated
Sep 30
Waxing Crescent
Oct 5
First Quarter
Oct 13
Full
Oct 21
Last Quarter
Oct 27
New

Hourly Weather History & Observations

Time (EDT) Temp. Dew Point Humidity Pressure Visibility Wind Dir Wind Speed Gust Speed Precip Events Conditions
12:56 AM 63.0 °F 57.9 °F 84% 30.22 in 10.0 mi SE 9.2 mph - N/A   Overcast
1:56 AM 62.1 °F 57.0 °F 84% 30.22 in 10.0 mi ESE 4.6 mph - N/A   Overcast
2:56 AM 62.1 °F 57.0 °F 84% 30.19 in 10.0 mi ESE 5.8 mph - N/A   Mostly Cloudy
3:56 AM 62.1 °F 57.0 °F 84% 30.19 in 10.0 mi ESE 3.5 mph - N/A   Overcast
4:56 AM 62.1 °F 57.0 °F 84% 30.19 in 10.0 mi Calm Calm - 0.00 in Rain Light Rain
5:56 AM 61.0 °F 57.9 °F 90% 30.19 in 10.0 mi ESE 3.5 mph - 0.00 in Rain Light Rain
6:11 AM 60.8 °F 57.2 °F 88% 30.20 in 10.0 mi South 3.5 mph - 0.00 in   Overcast
6:45 AM 60.8 °F 59.0 °F 94% 30.20 in 10.0 mi South 3.5 mph - 0.00 in   Overcast
6:56 AM 61.0 °F 59.0 °F 93% 30.19 in 10.0 mi South 4.6 mph - 0.00 in Rain Light Rain
7:09 AM 62.6 °F 59.0 °F 88% 30.21 in 10.0 mi South 4.6 mph - 0.00 in   Overcast
7:34 AM 62.6 °F 60.8 °F 94% 30.21 in 10.0 mi South 4.6 mph - 0.00 in   Overcast
7:56 AM 62.1 °F 60.1 °F 93% 30.21 in 10.0 mi South 4.6 mph - 0.00 in   Overcast
8:06 AM 62.6 °F 60.8 °F 94% 30.22 in 10.0 mi SE 4.6 mph - N/A   Overcast
8:19 AM 62.6 °F 60.8 °F 94% 30.22 in 10.0 mi SE 3.5 mph - N/A   Overcast
8:34 AM 62.6 °F 60.8 °F 94% 30.22 in 10.0 mi Calm Calm - N/A   Overcast
8:56 AM 62.1 °F 60.1 °F 93% 30.21 in 10.0 mi ESE 3.5 mph - N/A   Overcast
9:56 AM 63.0 °F 62.1 °F 97% 30.22 in 10.0 mi South 6.9 mph - 0.00 in   Overcast
10:07 AM 62.6 °F 62.6 °F 100% 30.22 in 10.0 mi South 6.9 mph - N/A   Overcast
10:56 AM 64.0 °F 63.0 °F 96% 30.21 in 8.0 mi South 4.6 mph - 0.02 in Rain Light Rain
11:56 AM 66.9 °F 64.9 °F 93% 30.19 in 10.0 mi South 4.6 mph - 0.00 in   Overcast
12:26 PM 68.0 °F 66.2 °F 94% 30.20 in 10.0 mi Calm Calm - N/A   Overcast
1:13 PM 69.8 °F 68.0 °F 94% 30.19 in 10.0 mi SW 4.6 mph - N/A   Overcast
1:56 PM 70.0 °F 66.9 °F 90% 30.17 in 10.0 mi North 3.5 mph - N/A   Overcast
2:30 PM 71.6 °F 68.0 °F 88% 30.16 in 10.0 mi Calm Calm - N/A   Overcast
2:56 PM 72.0 °F 66.9 °F 84% 30.14 in 10.0 mi Calm Calm - N/A   Overcast
3:13 PM 73.4 °F 66.2 °F 78% 30.15 in 10.0 mi Calm Calm - N/A   Overcast
3:23 PM 71.6 °F 68.0 °F 88% 30.15 in 10.0 mi North 3.5 mph - N/A   Overcast
3:56 PM 73.9 °F 68.0 °F 82% 30.13 in 10.0 mi Calm Calm - N/A   Overcast
4:51 PM 75.2 °F 68.0 °F 78% 30.13 in 10.0 mi South 3.5 mph - N/A   Mostly Cloudy
4:56 PM 73.9 °F 68.0 °F 82% 30.12 in 10.0 mi SW 5.8 mph - N/A   Mostly Cloudy
5:56 PM 73.9 °F 68.0 °F 82% 30.11 in 10.0 mi WSW 4.6 mph - N/A   Mostly Cloudy
6:56 PM 72.0 °F 66.9 °F 84% 30.11 in 10.0 mi Calm Calm - N/A   Mostly Cloudy
7:06 PM 71.6 °F 66.2 °F 83% 30.12 in 10.0 mi Calm Calm - N/A   Scattered Clouds
7:56 PM 69.1 °F 66.9 °F 93% 30.12 in 10.0 mi SSE 3.5 mph - N/A   Partly Cloudy
8:56 PM 69.1 °F 66.9 °F 93% 30.13 in 10.0 mi SSE 4.6 mph - N/A   Clear
9:56 PM 69.1 °F 66.9 °F 93% 30.12 in 10.0 mi South 6.9 mph - N/A   Clear
10:56 PM 66.9 °F 66.0 °F 97% 30.11 in 10.0 mi SSW 6.9 mph - N/A   Clear
11:56 PM 68.0 °F 66.0 °F 93% 30.09 in 10.0 mi South 6.9 mph - N/A   Clear